Location: Street
(51.1247°N, 2.7429°W)
Time: 03:02:40
(UTC+01:00)

deb Explorer IX - Visible Passes

Search period start: 19 May 2021 00:00
Search period end: 29 May 2021 00:00
Orbit: 541 x 1098 km, 38.8° (Epoch: 18 May)

Date Brightness Start Highest point End Pass type
(mag) Time Alt. Az. Time Alt. Az. Time Alt. Az.
19 May ? 00:45:08 10° WSW 00:46:57 14° SW 00:46:57 14° SW visible
19 May ? 22:33:33 10° WSW 22:39:16 27° S 22:43:00 16° SE visible
20 May ? 00:21:05 10° WSW 00:24:14 17° SW 00:24:14 17° SW visible
20 May ? 22:09:33 10° WSW 22:15:23 28° S 22:20:14 12° SE visible
20 May ? 23:57:01 10° WSW 00:01:19 18° SSW 00:01:29 18° SSW visible
21 May ? 21:45:33 10° WSW 21:51:29 29° S 21:57:01 10° SE visible
21 May ? 23:32:58 10° WSW 23:37:27 19° SSW 23:38:41 18° SSW visible
22 May ? 23:08:55 10° WSW 23:13:35 19° SSW 23:15:53 16° S visible
23 May ? 22:44:53 10° WSW 22:49:42 20° SSW 22:53:04 14° S visible
24 May ? 22:20:52 10° WSW 22:25:48 20° SSW 22:30:15 11° SSE visible
25 May ? 21:56:52 10° WSW 22:01:54 20° SSW 22:06:42 10° SSE visible
